Printer-friendly version

IAU Minor Planet Center

Minor Planet Center

MPEC 2006-B33 : 2006 BO7

The following Minor Planet Electronic Circular may be linked-to from your own Web pages, but must not otherwise be redistributed electronically.


Read MPEC 2006-B32 Read MPEC 2006-B34


M.P.E.C. 2006-B33                                Issued 2006 Jan. 24, 03:27 UT

     The Minor Planet Electronic Circulars contain information on unusual
         minor planets and routine data on comets.  They are published
   on behalf of Commission 20 of the International Astronomical Union by the
          Minor Planet Center, Smithsonian Astrophysical Observatory,
                          Cambridge, MA 02138, U.S.A.

                  Supported in part by the Brinson Foundation
                  Supported in part by the TABASGO Foundation
             Prepared using the Tamkin Foundation Computer Network

                              MPC@CFA.HARVARD.EDU
          URL http://cfa-www.harvard.edu/iau/mpc.html  ISSN 1523-6714

                                   2006 BO7

Observations:
     K06B07O* C2006 01 22.35064 08 18 58.96 +17 35 09.8          21.6 V EB033G96
     K06B07O  C2006 01 22.35921 08 19 06.06 +17 34 10.6          20.5 V EB033G96
     K06B07O  C2006 01 22.36776 08 19 13.22 +17 33 10.8          21.3 V EB033G96
     K06B07O  C2006 01 22.37632 08 19 20.56 +17 32 10.3          20.4 V EB033G96
     K06B07O  C2006 01 22.41952 08 19 58.28 +17 26 54.7          20.9 V EB033G96
     K06B07O  C2006 01 22.42351 08 20 01.84 +17 26 25.2          21.3 V EB033G96
     K06B07O  C2006 01 22.42751 08 20 05.35 +17 25 55.2          21.2 V EB033G96
     K06B07O  C2006 01 22.43153 08 20 09.02 +17 25 25.4          21.1 V EB033G96
     K06B07O  C2006 01 23.28786 08 40 08.79 +15 07 56.8          20.8 V EB033G96
     K06B07O  C2006 01 23.28953 08 40 11.46 +15 07 35.4          20.4 V EB033G96
     K06B07O  C2006 01 23.29121 08 40 14.05 +15 07 13.9          20.3 V EB033G96
     K06B07O  C2006 01 23.29288 08 40 16.75 +15 06 51.9          20.4 V EB033G96
     K06B07O  C2006 01 24.08417809 12 58.64 +10 48 42.7                 EB033J95
     K06B07O  C2006 01 24.08935809 13 15.46 +10 46 18.0                 EB033J95
     K06B07O  C2006 01 24.09418109 13 31.02 +10 44 02.0          19.7 R EB033J95

Observer details:
G96 Mt. Lemmon Survey.  Observer E. C. Beshore.  Measurers E. C. Beshore,
    E. J. Christensen, G. J. Garradd, A. D. Grauer, R. E. Hill, R. A. Kowalski,
    S. M. Larson, R. H. McNaught.  1.5-m reflector + CCD.
J95 Great Shefford.  Observer P. Birtwhistle.  0.40-m f/6.0 Schmidt-Cassegrain
    + CCD.

Orbital elements:
2006 BO7                                                 Earth MOID = 0.0011 AU
Epoch 2006 Mar. 6.0 TT = JDT 2453800.5                  MPC
M 358.07277              (2000.0)            P               Q
n   0.57321101     Peri.  247.49058     -0.99882624     +0.04813447
a   1.4352461      Node   295.26803     -0.04195434     -0.91550612
e   0.4031238      Incl.    0.34240     -0.02420674     -0.39941409
P   1.72           H   29.3           G   0.15           U   7
Residuals in seconds of arc
060122 G96  0.9+  0.0     060122 G96  0.6+  0.5-    060123 G96  0.7-  0.4-
060122 G96  0.0   0.1+    060122 G96  0.8-  0.4-    060123 G96  0.0   0.7-
060122 G96  0.5-  0.0     060122 G96  0.4-  0.1+    060124 J95  0.8-  1.2-
060122 G96  0.6+  0.0     060123 G96  0.1+  0.8-    060124 J95  0.0   0.2-
060122 G96  0.9+  0.8-    060123 G96  0.4+  0.6-    060124 J95  1.9-  0.4+

Ephemeris:
2006 BO7                 a,e,i = 1.44, 0.40, 0                   q = 0.8567
Date    TT    R. A. (2000) Decl.     Delta      r     Elong.  Phase     V
2006 01 20.0  07 55.47   +20 07.8    0.0329   1.017   177.2     2.7    22.2
2006 01 20.5  07 58.77   +19 47.6    0.0300   1.014   177.4     2.5    22.0
2006 01 21.0  08 02.75   +19 23.0    0.0272   1.011   177.8     2.1    21.7
2006 01 21.5  08 07.63   +18 52.1    0.0243   1.008   178.2     1.7    21.5
2006 01 22.0  08 13.75   +18 12.4    0.0215   1.006   178.4     1.6    21.2
2006 01 22.5  08 21.65   +17 19.8    0.0187   1.003   177.5     2.4    20.9
2006 01 23.0  08 32.17   +16 07.0    0.0159   1.000   175.5     4.4    20.7
2006 01 23.5  08 46.83   +14 20.9    0.0132   0.997   172.2     7.7    20.4
2006 01 24.0  09 08.43   +11 35.4    0.0106   0.995   166.9    13.0    20.2
2006 01 24.5  09 42.55   +06 55.5    0.00818  0.992   157.8    22.0    19.9
2006 01 25.0  10 40.51   -01 28.4    0.00616  0.989   141.6    38.2    19.8
2006 01 25.5  12 18.71   -14 55.3    0.00506  0.987   114.4    65.3    20.1
2006 01 26.0  14 24.88   -26 33.6    0.00546  0.984    83.4    96.3    21.4
2006 01 26.5  16 02.98   -30 10.4    0.00712  0.981    62.1   117.6    23.2
2006 01 27.0  17 00.85   -30 08.0    0.00939  0.979    50.1   129.5    24.8
2006 01 27.5  17 34.92   -29 21.7    0.0119   0.976    43.2   136.4    26.0
2006 01 28.0  17 56.49   -28 35.0    0.0146   0.974    38.9   140.6    27.0
2006 01 28.5  18 11.15   -27 55.5    0.0173   0.971    36.1   143.3    27.7
2006 01 29.0  18 21.70   -27 23.1    0.0201   0.968    34.2   145.1    28.3
2006 01 29.5  18 29.63   -26 56.6    0.0229   0.966    32.9   146.3    28.8
2006 01 30.0  18 35.80   -26 34.7    0.0257   0.963    32.0   147.2    29.2

Gareth V. Williams           (C) Copyright 2006 MPC           M.P.E.C. 2006-B33

Read MPEC 2006-B32 Read MPEC 2006-B34


Our Web policy. Index to the CBAT/MPC/ICQ pages.


Valid HTML 4.01!